Content
SEND FEEDBACK

Daily
Averages
Monthly
Summary
United States of America

STATEN ISLAND, NEW YORK


Home > North America > United States > New York
Elevation: 46 meters     Latitude: 40 35N     Longitude: 074 09W

WEATHER
 
SELECT A DAY
Number of Records: 193,141;   Date Range: 1/1/95 - 11/20/14
 
SHARE

PRINT THIS DATA

[ ← Previous Day ]
WEATHER ALMANAC - 9 FEBRUARY, 2013
[ Next Day → ]
[ °F ]   °C
Weather ElementAverageHighLow
Temperature-1.9 °C0.6 °C (1:51 pm)-6.7 °C (11:51 pm)
Dewpoint-7.5 °C-1.7 °C (2:51 am)-13.9 °C (7:51 pm)
Humidity69 %100 % (2:19 am)35 % (3:51 pm)
Barometer1015.2 hPa1027.8 hPa (11:51 pm)1008.5 hPa (1:51 am)
Wind Speed24.8 km/h46.3 km/h (11:51 am)
Wind Gust57.5 km/h (11:51 am)
Weather ElementAverage
Visibility12.7 km
Wind DirectionNW (316.6 °)

Weather ElementTotal
Precipitation22.86 mm
Heating Degree Days21.4 (Base 18.3)
Averaged from 32 records on 9 February, 2013
WEATHER CONDITIONS BREAKOUT
WIND DIRECTION BREAKOUT
WEATHER BY HOUR - 9 FEBRUARY, 2013
[ °F ]   °C
Local TimeTemperatureDewpointHumidityBarometerVisibilityWind DirectionWind SpeedGust SpeedPrecipitationEventsConditions
1:51 AM-2.2 °C-2.8 °C96 %1008.5 hPa0.8 kmNorth (350°)18.5 km/h2.29 mmFog-SnowSnow
2:09 AM-2 °C-3 °C93 %1008.8 hPa1.6 kmNorth (350°)22.2 km/h0.51 mmSnowLight Snow
2:19 AM-2 °C-2 °C100 %1008.8 hPa0.8 kmNNW (330°)20.4 km/h1.02 mmFog-SnowSnow
2:38 AM-2 °C-2 °C100 %1009.1 hPa0.8 kmNNW (340°)29.6 km/h35.2 km/h2.54 mmFog-SnowSnow
2:49 AM-2 °C-2 °C100 %1009.1 hPa0.8 kmNNW (340°)24.1 km/h4.83 mmFog-SnowHeavy Snow
2:51 AM-1.7 °C-1.7 °C100 %1009.1 hPa0.8 kmNNW (340°)22.2 km/h5.08 mmFog-SnowSnow
3:18 AM-2 °C-2 °C100 %1008.8 hPa6.4 kmNW (320°)22.2 km/h3.3 mmSnowLight Snow
3:51 AM-1.1 °C-2.8 °C88 %1009.5 hPa16.1 kmNNW (330°)18.5 km/h3.3 mmOvercast
4:26 AM-1 °C-3 °C86 %1009.8 hPa11.3 kmNW (320°)22.2 km/hOvercast
4:48 AM-1 °C-3 °C86 %1010.2 hPa14.5 kmNW (320°)22.2 km/h0 mmSnowLight Snow
4:51 AM-1.1 °C-2.8 °C88 %1010.2 hPa14.5 kmNW (310°)20.4 km/h0 mmSnowLight Snow
5:28 AM-1 °C-4 °C80 %1010.5 hPa16.1 kmNW (310°)24.1 km/h37 km/h0 mmSnowLight Snow
5:51 AM-1.1 °C-5 °C75 %1010.8 hPa16.1 kmNW (310°)25.9 km/h38.9 km/h0 mmOvercast
6:51 AM-1.1 °C-5 °C75 %1011.9 hPa16.1 kmWest (280°)16.7 km/hOvercast
7:10 AM-2 °C-6 °C74 %1012.2 hPa16.1 kmWNW (300°)24.1 km/hOvercast
7:51 AM-2.2 °C-7.2 °C69 %1013.2 hPa16.1 kmWNW (300°)37 km/h51.8 km/hMostly Cloudy
8:51 AM-2.8 °C-7.8 °C69 %1014.2 hPa16.1 kmNW (310°)29.6 km/h44.4 km/hMostly Cloudy
9:51 AM-2.8 °C-8.3 °C66 %1015.2 hPa16.1 kmNW (310°)22.2 km/h46.3 km/hMostly Cloudy
10:51 AM-2.2 °C-8.9 °C61 %1016.6 hPa16.1 kmNW (310°)31.5 km/h46.3 km/hMostly Cloudy
11:51 AM-1.7 °C-8.9 °C58 %1016.9 hPa16.1 kmNW (320°)46.3 km/h57.5 km/hMostly Cloudy
12:51 PM-0.6 °C-9.4 °C52 %1017.3 hPa16.1 kmNW (320°)31.5 km/h42.6 km/hScattered Clouds
1:51 PM0.6 °C-10 °C46 %1017.9 hPa16.1 kmWNW (300°)27.8 km/h37 km/hScattered Clouds
2:51 PM0.6 °C-12.2 °C38 %1018.3 hPa16.1 kmNW (310°)40.7 km/h53.8 km/hPartly Cloudy
3:51 PM0.6 °C-13.3 °C35 %1019 hPa16.1 kmNW (320°)25.9 km/h48.1 km/hPartly Cloudy
4:51 PM-0.6 °C-12.2 °C42 %1020.3 hPa16.1 kmWNW (300°)35.2 km/h48.1 km/hClear
5:51 PM-1.1 °C-13.3 °C40 %1021.7 hPa16.1 kmNW (320°)29.6 km/h42.6 km/hClear
6:51 PM-2.2 °C-13.3 °C43 %1023 hPa16.1 kmNW (320°)16.7 km/h31.5 km/hClear
7:51 PM-2.8 °C-13.9 °C43 %1024 hPa16.1 kmNW (310°)18.5 km/h42.6 km/hClear
8:51 PM-3.9 °C-13.9 °C46 %1025.4 hPa16.1 kmNW (310°)20.4 km/h37 km/hClear
9:51 PM-4.4 °C-13.9 °C48 %1026.8 hPa16.1 kmNW (310°)18.5 km/hClear
10:51 PM-5.6 °C-13.3 °C55 %1027.1 hPa16.1 kmWNW (300°)14.8 km/hClear
11:51 PM-6.7 °C-13.9 °C57 %1027.8 hPa16.1 kmNW (310°)11.1 km/hClear
Hourly data recorded from KEWR, located 0 kilometers away from Staten Island, New York







STORIES FROM OUR PARTNERS